Vertical_Velocity
-3 -2 -2 -4 -2 -2 -0 -1 -3 3 1 -4 -4 3 12 8 2 4 -1 3 -0 3 1 -0 0 1 -0 -4 -0 -0 -0 -11 -2 5 8 4 -1 2 2 -8 -0 2 2 -22
-1 -3 -6 -3 -2 1 2 1 0 2 1 -3 0 4 4 -1 5 -0 3 1 4 -2 3 -11 1 -2 2 -2 -2 -9 -3 -14 -6 7 2 0 1 2 4 -12 1 27 -22 -34
-7 5 -0 -3 -1 -1 0 -0 1 1 1 0 0 0 1 -1 3 -1 -3 2 -3 -0 -0 -1 -8 5 -7 -3 -2 -0 -9 3 -3 -1 7 -1 1 9 8 -12 -0 -21 22 -47
1 -6 -3 -4 -3 -1 1 2 5 0 -2 -3 -0 -0 5 1 2 2 3 -2 -0 -6 -3 3 -6 -3 4 -1 -2 -3 -5 -3 -4 3 1 -3 1 6 13 -10 10 -19 -15 -2
-0 2 -3 3 -4 1 -0 -0 4 6 0 2 3 -0 3 2 -4 7 0 2 -4 3 1 -4 -0 -3 -0 7 -0 0 -1 -7 -3 3 0 -4 -3 18 -6 4 3 -1 -8 -0
0 -2 -1 -3 -1 -3 -0 0 2 4 6 2 1 1 -2 -1 1 -1 -0 1 2 1 -4 -3 -0 -2 1 1 -1 4 -1 -2 -4 -3 6 -1 -8 10 -3 5 2 -9 -5 -5
1 -1 2 -1 -1 -2 -0 3 2 2 4 -1 1 0 1 -0 -5 -3 2 1 3 -6 2 -0 -2 -1 0 -1 5 5 3 2 -10 -3 -0 -16 9 12 -4 -2 8 -3 3 -2
-1 -0 0 -0 -3 -0 -1 -0 -1 1 3 3 -1 -2 -1 1 -1 1 1 -1 -0 -1 -1 -4 -4 -4 1 5 4 5 -2 -3 -4 -22 -0 -4 25 17 -16 -5 22 -8 -1 -1
-2 0 -0 -2 -1 -3 -3 0 -2 -2 2 6 4 -0 -1 0 1 0 7 -3 -2 -4 -2 -4 -5 -2 4 2 0 9 7 -2 -10 -5 -8 -21 8 26 -15 6 10 5 -1 -3
-1 3 -1 1 -1 -2 -3 -3 1 -3 1 1 6 2 1 4 0 2 -1 2 -0 -2 -1 -5 -6 -3 -2 -4 0 4 -4 -4 -7 -2 -12 -12 14 10 -7 4 -6 -9 -1 -0
-4 -1 2 1 2 -2 2 -3 -1 -0 1 3 -0 1 3 0 -2 -2 2 6 0 -1 -3 -4 2 -11 -1 -8 6 4 2 -13 -2 -5 -9 -23 13 -3 -8 -2 -2 -2 -2 -1
-2 -2 0 2 2 -1 1 5 -3 -2 2 10 -0 4 7 -1 -4 4 -5 1 3 -3 -2 -6 -8 -6 -5 5 -5 6 -17 -4 -5 -19 -6 0 -1 -0 2 -2 -4 -3 -1 -0
-2 -2 0 2 1 -0 -5 -2 -2 -2 -5 2 2 12 -6 3 -3 -8 7 -2 -2 2 -8 -1 -9 -7 1 -0 0 -4 -1 4 -15 -14 19 2 6 -6 1 -1 4 -2 3 3
-2 -2 -1 -0 -3 -0 -7 -1 -1 -3 -9 -14 25 -12 13 2 -4 -6 -2 8 -2 5 -5 -11 -3 -2 4 6 -9 -16 4 -3 4 -7 6 -5 5 -2 -9 -6 -2 -2 -4 4
-1 -2 -1 1 -3 -1 -9 -1 5 -1 -11 -13 -4 9 11 2 -3 -2 -5 -0 1 3 -4 -9 -7 2 -14 11 -1 -32 17 20 -9 -7 2 -13 12 -1 -3 2 2 -7 6 3
-1 -1 1 1 3 -4 -5 1 8 1 -11 -17 -1 -1 18 5 -3 3 0 3 -3 -4 3 3 -12 11 -5 -17 -15 9 -4 1 9 -8 -0 -14 8 2 5 3 0 -1 2 -1
-1 -1 -0 -0 1 -0 -4 4 5 -1 -5 -14 -11 -9 24 9 3 21 4 -5 -3 -4 -7 -8 1 -2 1 -11 -34 25 6 7 1 -8 -3 -7 -1 3 -9 -6 -5 1 2 -3
-1 -1 -0 -0 1 1 1 5 0 -5 -6 -4 -16 -0 3 10 6 -1 -0 -5 -2 -0 -2 -0 1 5 1 -45 12 15 11 8 -6 -11 -4 3 4 -0 3 0 4 5 4 -3
-1 -2 -1 -2 -2 2 5 -6 -8 2 -5 -8 4 11 -0 9 0 -5 -0 -1 -4 -8 -7 2 -5 -4 -36 9 11 9 4 -8 6 -11 -7 0 -2 -2 2 4 5 3 3 -2
0 -0 -1 3 3 -4 -2 1 -3 -1 -3 0 10 1 10 -9 -5 5 1 -9 -5 -2 4 3 -8 -1 14 7 16 -5 -7 -1 -2 -2 6 0 16 6 1 5 3 -0 -0 -0
-2 -1 0 -4 -2 -2 -2 -3 1 -4 5 5 3 0 8 10 1 -6 -8 -3 5 -3 15 -5 2 11 -2 -17 -2 -8 -7 -1 -2 5 9 -0 2 1 5 5 -1 -1 0 0
-0 -2 -1 -1 -2 -1 -1 4 1 3 2 15 18 7 4 2 3 10 14 4 -4 10 12 0 4 5 1 0 -4 2 -1 -2 -2 1 6 -2 -1 3 5 1 1 -1 -1 0
-2 -2 -1 0 1 0 2 3 -0 -2 -1 -4 4 5 11 21 21 5 5 -1 2 1 1 3 8 -1 -2 1 2 1 1 1 1 -1 -2 1 0 5 3 0 -1 -2 -1 -1
1 -2 -4 -1 0 3 1 3 3 2 3 2 -0 -7 4 -2 3 12 2 2 2 5 -1 2 -1 3 6 2 0 1 2 2 1 2 2 1 4 5 1 1 1 -0 -0 0
0 -4 -6 3 2 2 1 1 -1 -4 -0 -1 -1 2 7 1 -5 1 4 -0 -2 5 4 -3 0 1 -0 -1 2 0 2 1 0 4 0 3 3 1 2 2 1 0 -0 -1
-3 -1 0 2 0 0 -2 0 0 1 0 1 1 1 2 -2 -3 1 4 4 5 3 -2 -1 4 3 -3 -2 -3 2 3 -0 -0 3 4 3 2 2 2 1 1 0 -0 -0
0 3 -2 -2 -3 -8 -1 -1 -2 -1 0 1 -3 -1 2 -0 28 10 2 -0 -0 2 4 7 5 -1 -4 -0 1 2 2 -2 1 2 3 2 1 1 1 1 0 -0 -0 0
Height
5636 5635 5628 5626 5622 5622 5621 5621 5622 5626 5628 5632 5634 5638 5648 5651 5657 5660 5661 5665 5667 5670 5671 5671 5673 5675 5674 5673 5675 5676 5677 5677 5678 5679 5678 5676 5673 5669 5666 5663 5658 5652 5643 5642
5627 5624 5621 5620 5618 5617 5616 5615 5615 5617 5620 5622 5626 5630 5634 5638 5646 5649 5650 5652 5656 5659 5661 5661 5662 5663 5663 5663 5664 5664 5667 5667 5667 5669 5669 5668 5663 5660 5659 5657 5649 5650 5637 5633
5622 5615 5614 5612 5611 5610 5610 5610 5610 5611 5613 5615 5618 5620 5624 5627 5633 5638 5640 5642 5643 5645 5648 5649 5650 5651 5652 5653 5653 5653 5654 5657 5658 5659 5660 5660 5655 5653 5653 5649 5642 5640 5637 5625
5615 5610 5609 5606 5604 5604 5604 5603 5604 5604 5605 5606 5608 5611 5614 5618 5622 5625 5629 5631 5633 5634 5635 5636 5638 5638 5641 5641 5640 5642 5644 5646 5648 5650 5650 5648 5646 5644 5646 5640 5638 5629 5632 5624
5604 5604 5602 5599 5598 5598 5599 5598 5598 5599 5598 5600 5602 5604 5606 5609 5610 5615 5618 5620 5621 5622 5622 5624 5623 5623 5626 5629 5630 5633 5635 5636 5637 5639 5640 5638 5637 5638 5638 5634 5632 5627 5623 5621
5597 5595 5596 5592 5591 5591 5592 5591 5590 5590 5592 5594 5595 5597 5598 5599 5602 5605 5606 5607 5606 5607 5608 5609 5611 5614 5616 5616 5620 5623 5625 5627 5628 5629 5630 5630 5629 5632 5630 5628 5624 5621 5618 5615
5586 5585 5584 5584 5582 5583 5583 5583 5583 5582 5584 5586 5587 5588 5589 5591 5594 5595 5596 5596 5597 5597 5598 5599 5602 5604 5607 5608 5612 5614 5616 5618 5618 5620 5619 5621 5622 5621 5622 5621 5619 5616 5614 5609
5577 5576 5575 5575 5574 5573 5574 5574 5574 5574 5575 5577 5579 5579 5580 5582 5583 5583 5585 5585 5587 5589 5592 5594 5594 5595 5597 5600 5603 5605 5606 5607 5609 5610 5609 5613 5614 5613 5615 5613 5615 5609 5608 5605
5567 5566 5566 5565 5564 5563 5563 5564 5564 5564 5565 5567 5569 5568 5569 5569 5571 5573 5574 5574 5576 5579 5581 5582 5583 5585 5586 5589 5591 5593 5595 5596 5597 5598 5598 5600 5602 5606 5608 5603 5606 5604 5603 5599
5557 5555 5555 5555 5553 5553 5553 5553 5555 5555 5555 5555 5556 5557 5558 5558 5559 5561 5561 5562 5565 5566 5567 5569 5572 5574 5576 5578 5580 5583 5582 5582 5584 5585 5584 5592 5593 5598 5596 5595 5599 5596 5596 5594
5546 5545 5545 5545 5544 5543 5543 5543 5543 5544 5545 5545 5544 5544 5545 5545 5547 5547 5548 5551 5552 5552 5554 5556 5559 5561 5563 5565 5567 5568 5570 5570 5572 5572 5574 5578 5585 5585 5586 5586 5587 5588 5590 5589
5534 5533 5533 5533 5533 5531 5531 5531 5530 5530 5531 5533 5532 5531 5529 5534 5534 5535 5535 5538 5538 5538 5540 5542 5543 5547 5549 5550 5554 5554 5557 5559 5559 5559 5565 5568 5571 5575 5575 5578 5579 5582 5584 5583
5523 5521 5520 5520 5518 5517 5517 5517 5516 5515 5515 5518 5519 5518 5519 5519 5516 5518 5524 5524 5522 5523 5523 5524 5527 5531 5532 5537 5537 5538 5541 5542 5542 5543 5555 5556 5560 5564 5566 5569 5572 5575 5578 5578
5509 5508 5506 5504 5502 5500 5500 5500 5499 5496 5497 5501 5507 5499 5502 5500 5500 5502 5505 5505 5505 5508 5505 5507 5511 5513 5515 5521 5517 5518 5528 5529 5530 5529 5539 5541 5546 5550 5552 5557 5563 5568 5571 5573
5492 5490 5488 5486 5483 5480 5480 5481 5478 5474 5475 5483 5487 5485 5485 5482 5482 5486 5487 5487 5487 5487 5488 5489 5494 5495 5494 5499 5495 5505 5515 5516 5512 5517 5525 5525 5534 5538 5542 5548 5556 5561 5565 5566
5472 5470 5467 5465 5463 5459 5458 5460 5459 5453 5455 5458 5462 5463 5468 5467 5467 5469 5467 5466 5466 5468 5472 5474 5478 5484 5476 5476 5477 5497 5497 5494 5498 5504 5513 5510 5519 5526 5532 5539 5548 5553 5558 5560
5451 5449 5447 5446 5445 5443 5443 5445 5443 5440 5437 5438 5437 5443 5454 5456 5455 5449 5446 5450 5455 5456 5457 5462 5468 5470 5465 5464 5466 5483 5481 5484 5489 5493 5497 5500 5510 5514 5518 5528 5539 5545 5551 5553
5434 5433 5432 5432 5432 5431 5433 5431 5429 5428 5426 5426 5427 5432 5436 5435 5435 5434 5436 5440 5444 5447 5448 5454 5457 5458 5456 5456 5470 5472 5476 5476 5479 5486 5487 5493 5497 5502 5509 5522 5532 5541 5546 5549
5422 5422 5421 5421 5422 5423 5422 5419 5420 5423 5420 5419 5422 5423 5423 5423 5425 5428 5431 5434 5437 5441 5445 5447 5449 5452 5452 5459 5462 5463 5465 5467 5472 5474 5480 5483 5488 5496 5506 5517 5527 5535 5540 5545
5415 5415 5415 5415 5415 5414 5414 5414 5413 5415 5414 5415 5417 5417 5419 5420 5423 5426 5431 5432 5435 5436 5442 5444 5445 5447 5451 5452 5455 5456 5459 5462 5467 5472 5475 5481 5488 5496 5504 5513 5522 5529 5535 5540
5408 5408 5408 5407 5407 5406 5405 5405 5407 5409 5411 5413 5415 5418 5420 5422 5425 5428 5428 5433 5435 5435 5441 5440 5441 5443 5444 5447 5450 5453 5455 5459 5463 5468 5473 5479 5487 5493 5502 5511 5518 5524 5531 5536
5403 5402 5401 5400 5398 5397 5397 5399 5401 5403 5407 5408 5413 5416 5420 5424 5427 5429 5431 5430 5430 5433 5435 5437 5439 5441 5443 5445 5448 5450 5454 5459 5463 5467 5472 5479 5485 5493 5501 5509 5516 5521 5527 5533
5396 5395 5394 5394 5394 5393 5393 5395 5397 5400 5402 5404 5408 5413 5416 5420 5423 5424 5425 5426 5429 5432 5433 5436 5439 5440 5441 5443 5446 5449 5453 5457 5461 5466 5472 5479 5485 5493 5500 5508 5514 5520 5525 5529
5391 5389 5389 5390 5391 5391 5391 5392 5396 5401 5405 5407 5408 5411 5412 5415 5416 5421 5422 5426 5427 5430 5434 5435 5435 5437 5440 5442 5445 5448 5452 5455 5460 5466 5473 5479 5486 5493 5500 5506 5512 5518 5523 5527
5385 5384 5385 5387 5388 5388 5389 5390 5394 5399 5403 5406 5408 5411 5414 5416 5417 5418 5422 5425 5427 5430 5431 5432 5434 5435 5437 5439 5441 5445 5449 5453 5459 5466 5473 5480 5487 5494 5500 5506 5512 5517 5521 5525
5380 5380 5381 5382 5383 5385 5385 5388 5393 5397 5401 5405 5407 5411 5414 5416 5418 5420 5422 5424 5426 5428 5428 5429 5431 5432 5431 5434 5437 5441 5446 5452 5459 5467 5474 5481 5488 5494 5500 5505 5510 5514 5518 5520
5375 5375 5375 5375 5377 5379 5383 5387 5393 5398 5401 5403 5406 5409 5411 5412 5418 5421 5422 5423 5424 5425 5426 5427 5428 5427 5427 5430 5434 5439 5445 5452 5460 5468 5475 5482 5488 5493 5498 5503 5507 5511 5514 5516